TimeEDT,TemperatureF,Dew PointF,Humidity,Sea Level PressureIn,VisibilityMPH,Wind Direction,Wind SpeedMPH,Gust SpeedMPH,PrecipitationIn,Events,Conditions,WindDirDegrees,DateUTC
12:28 AM,71.6,69.8,94,30.19,10.0,South,6.9,-,N/A,,Overcast,190,2013-07-03 04:28:00
12:44 AM,71.6,69.8,94,30.19,10.0,South,6.9,-,N/A,,Overcast,180,2013-07-03 04:44:00
12:53 AM,72.0,70.0,93,30.17,10.0,South,9.2,-,N/A,,Overcast,190,2013-07-03 04:53:00
1:01 AM,71.6,69.8,94,30.19,10.0,South,11.5,-,N/A,,Overcast,190,2013-07-03 05:01:00
1:19 AM,71.6,69.8,94,30.19,10.0,South,10.4,-,N/A,,Overcast,180,2013-07-03 05:19:00
1:53 AM,72.0,70.0,93,30.16,10.0,South,6.9,-,N/A,,Overcast,180,2013-07-03 05:53:00
2:16 AM,71.6,69.8,94,30.19,10.0,South,5.8,-,N/A,,Overcast,170,2013-07-03 06:16:00
2:22 AM,71.6,69.8,94,30.19,10.0,South,5.8,-,N/A,,Overcast,170,2013-07-03 06:22:00
2:53 AM,72.0,70.0,93,30.17,10.0,South,8.1,-,N/A,,Overcast,180,2013-07-03 06:53:00
3:02 AM,71.6,69.8,94,30.18,10.0,South,8.1,-,N/A,,Overcast,180,2013-07-03 07:02:00
3:48 AM,71.6,69.8,94,30.17,10.0,South,5.8,-,0.00,,Overcast,170,2013-07-03 07:48:00
3:53 AM,71.1,70.0,96,30.15,10.0,South,8.1,-,0.00,,Overcast,190,2013-07-03 07:53:00
4:14 AM,71.6,69.8,94,30.17,6.0,South,6.9,-,0.01,Rain,Light Rain,190,2013-07-03 08:14:00
4:28 AM,71.6,69.8,94,30.17,3.0,South,4.6,-,0.08,Rain,Rain,170,2013-07-03 08:28:00
4:37 AM,71.6,69.8,94,30.17,5.0,SSE,4.6,-,0.09,Rain,Light Rain,160,2013-07-03 08:37:00
4:53 AM,71.1,70.0,96,30.16,2.0,South,5.8,-,0.18,Rain,Heavy Rain,170,2013-07-03 08:53:00
4:58 AM,71.6,69.8,94,30.17,1.2,South,6.9,-,0.07,Rain,Heavy Rain,170,2013-07-03 08:58:00
5:09 AM,71.6,69.8,94,30.18,3.0,South,3.5,-,0.12,Rain,Rain,190,2013-07-03 09:09:00
5:32 AM,71.6,69.8,94,30.18,8.0,SE,3.5,-,0.18,Rain,Light Rain,140,2013-07-03 09:32:00
5:42 AM,71.6,69.8,94,30.19,10.0,Calm,Calm,-,0.18,,Overcast,0,2013-07-03 09:42:00
5:53 AM,71.1,69.1,93,30.17,2.0,South,3.5,-,0.18,,Overcast,180,2013-07-03 09:53:00
6:53 AM,71.1,70.0,96,30.18,2.0,Calm,Calm,-,0.01,Rain,Light Rain,0,2013-07-03 10:53:00
7:00 AM,71.6,69.8,94,30.20,10.0,Calm,Calm,-,0.00,Rain,Light Rain,0,2013-07-03 11:00:00
7:19 AM,71.6,69.8,94,30.20,1.8,Calm,Calm,-,0.05,Rain,Heavy Rain,0,2013-07-03 11:19:00
7:36 AM,71.6,69.8,94,30.21,2.0,Calm,Calm,-,0.10,Rain,Light Rain,0,2013-07-03 11:36:00
7:43 AM,71.6,69.8,94,30.21,3.0,SE,3.5,-,0.11,Rain,Light Rain,140,2013-07-03 11:43:00
7:49 AM,71.6,69.8,94,30.21,1.8,South,3.5,-,0.13,Rain,Rain,170,2013-07-03 11:49:00
7:53 AM,71.1,70.0,96,30.20,1.2,Calm,Calm,-,0.15,Rain,Light Rain,0,2013-07-03 11:53:00
8:10 AM,71.6,69.8,94,30.22,2.5,Calm,Calm,-,0.08,Rain,Rain,0,2013-07-03 12:10:00
8:17 AM,71.6,69.8,94,30.22,2.5,Calm,Calm,-,0.09,Rain,Light Rain,0,2013-07-03 12:17:00
8:22 AM,71.6,69.8,94,30.22,3.0,Calm,Calm,-,0.11,Rain,Light Rain,0,2013-07-03 12:22:00
8:53 AM,72.0,70.0,93,30.22,10.0,Calm,Calm,-,0.12,,Overcast,0,2013-07-03 12:53:00
9:02 AM,71.6,69.8,94,30.24,4.0,Calm,Calm,-,N/A,,Overcast,0,2013-07-03 13:02:00
9:43 AM,73.4,69.8,88,30.24,2.5,Calm,Calm,-,0.01,Rain,Light Rain,0,2013-07-03 13:43:00
9:53 AM,73.0,70.0,90,30.23,2.5,Calm,Calm,-,0.01,Rain,Light Rain,0,2013-07-03 13:53:00
10:46 AM,73.4,71.6,94,30.25,4.0,NNW,3.5,-,0.02,Rain,Light Rain,330,2013-07-03 14:46:00
10:53 AM,73.9,72.0,93,30.23,4.0,NNW,3.5,-,0.02,,Overcast,330,2013-07-03 14:53:00
11:53 AM,77.0,73.0,88,30.22,10.0,Calm,Calm,-,0.00,,Mostly Cloudy,0,2013-07-03 15:53:00
12:03 PM,77.0,73.4,89,30.24,10.0,Calm,Calm,-,N/A,,Mostly Cloudy,0,2013-07-03 16:03:00
12:35 PM,78.8,73.4,83,30.23,10.0,Calm,Calm,-,N/A,,Mostly Cloudy,0,2013-07-03 16:35:00
12:53 PM,79.0,73.0,82,30.21,10.0,Calm,Calm,-,N/A,,Mostly Cloudy,0,2013-07-03 16:53:00
1:00 PM,78.8,73.4,83,30.23,10.0,Variable,3.5,-,N/A,,Scattered Clouds,0,2013-07-03 17:00:00
1:16 PM,80.6,73.4,79,30.23,10.0,WSW,3.5,-,N/A,,Mostly Cloudy,250,2013-07-03 17:16:00
1:53 PM,80.1,73.0,79,30.21,10.0,Calm,Calm,-,N/A,,Mostly Cloudy,0,2013-07-03 17:53:00
2:00 PM,80.6,71.6,74,30.22,10.0,Calm,Calm,-,N/A,,Partly Cloudy,0,2013-07-03 18:00:00
2:53 PM,84.0,73.0,69,30.20,10.0,South,5.8,-,0.00,,Scattered Clouds,190,2013-07-03 18:53:00
3:53 PM,84.0,71.1,65,30.19,10.0,WNW,6.9,-,N/A,,Mostly Cloudy,290,2013-07-03 19:53:00
4:00 PM,84.2,69.8,62,30.21,10.0,SSW,6.9,-,N/A,,Mostly Cloudy,200,2013-07-03 20:00:00
4:53 PM,79.0,73.0,82,30.19,8.0,South,8.1,-,0.00,Rain,Light Rain,180,2013-07-03 20:53:00
5:44 PM,77.0,73.4,89,30.22,2.5,South,9.2,-,0.06,Rain-Thunderstorm,Thunderstorms and Rain,180,2013-07-03 21:44:00
5:53 PM,75.9,73.0,91,30.21,2.0,South,9.2,-,0.09,Rain-Thunderstorm,Thunderstorms and Rain,170,2013-07-03 21:53:00
6:03 PM,75.2,73.4,94,30.22,1.0,SSE,9.2,-,0.18,Rain-Thunderstorm,Thunderstorms and Rain,160,2013-07-03 22:03:00
6:20 PM,73.4,71.6,94,30.22,3.0,SSE,6.9,-,0.28,Rain-Thunderstorm,Thunderstorms and Rain,160,2013-07-03 22:20:00
6:29 PM,73.4,71.6,94,30.21,5.0,Calm,Calm,-,0.29,Rain,Rain,0,2013-07-03 22:29:00
6:53 PM,73.9,72.0,93,30.19,5.0,SE,3.5,-,0.29,Rain,Rain,140,2013-07-03 22:53:00
7:53 PM,73.9,72.0,93,30.21,10.0,Calm,Calm,-,0.00,,Partly Cloudy,0,2013-07-03 23:53:00
8:53 PM,73.0,72.0,96,30.21,10.0,South,3.5,-,N/A,,Clear,190,2013-07-04 00:53:00
9:53 PM,73.0,72.0,96,30.22,7.0,SSW,3.5,-,N/A,,Partly Cloudy,210,2013-07-04 01:53:00
10:00 PM,73.4,73.4,100,30.25,6.0,SSW,3.5,-,N/A,,Scattered Clouds,200,2013-07-04 02:00:00
10:11 PM,73.4,73.4,100,30.25,6.0,Calm,Calm,-,N/A,,Mostly Cloudy,0,2013-07-04 02:11:00
10:53 PM,73.9,73.0,97,30.23,5.0,South,4.6,-,N/A,,Mist,180,2013-07-04 02:53:00
11:09 PM,73.4,71.6,94,30.25,3.0,Calm,Calm,-,N/A,,Overcast,0,2013-07-04 03:09:00
11:17 PM,73.4,71.6,94,30.25,2.5,Calm,Calm,-,N/A,,Overcast,0,2013-07-04 03:17:00
11:29 PM,73.4,71.6,94,30.25,1.0,Calm,Calm,-,N/A,,Mist,0,2013-07-04 03:29:00
11:50 PM,73.4,71.6,94,30.26,3.0,Calm,Calm,-,N/A,,Overcast,0,2013-07-04 03:50:00
11:53 PM,73.0,72.0,96,30.24,5.0,Calm,Calm,-,N/A,,Overcast,0,2013-07-04 03:53:00